Temperature
19 20 20 21 21 19 18 18 18 18 18 19 18 18 19 20 21 21 21 21 22 22 22 22 21 21 20 19 19 18 17 17 17 16 16 15 15 15 14 14 14 13 13 13
20 21 21 21 21 20 19 19 18 19 19 19 19 19 19 20 20 20 21 22 22 22 22 22 21 21 20 20 19 18 18 17 17 16 16 16 15 15 14 14 14 13 13 13
19 19 21 20 20 20 20 19 19 19 19 19 17 17 19 20 20 21 22 23 23 23 23 22 22 21 21 20 19 19 18 17 17 17 16 16 15 15 15 14 14 13 13 13
17 19 20 19 20 20 19 19 18 18 18 18 18 19 20 21 21 22 23 23 23 23 23 22 22 21 21 20 19 19 18 17 17 17 16 16 15 15 15 14 14 13 13 13
15 17 18 19 19 19 19 19 18 17 18 18 18 19 19 20 21 22 23 23 23 23 23 22 22 21 20 20 19 18 18 18 17 17 16 16 16 15 15 14 14 13 13 13
15 18 18 19 19 19 19 19 18 17 17 17 18 18 18 21 21 22 22 23 23 22 22 22 21 21 20 19 19 19 18 18 17 17 16 16 16 15 15 14 14 13 13 13
15 17 17 18 18 19 19 19 18 18 17 17 17 18 20 21 22 22 22 22 22 22 22 22 21 20 20 19 19 19 18 18 17 17 16 16 16 15 15 14 14 13 13 13
14 16 17 18 18 18 17 18 18 18 18 18 18 19 20 21 21 22 22 22 22 22 21 21 20 19 19 19 19 18 18 17 17 17 16 16 15 15 14 14 13 13 13 13
15 16 16 16 17 17 18 18 18 18 18 18 18 19 19 20 20 21 21 21 21 21 20 20 19 19 19 18 18 17 17 17 16 16 16 15 15 14 14 14 13 13 13 13
14 15 16 17 17 18 18 18 18 18 18 18 18 19 19 20 20 20 20 20 20 20 19 19 19 18 18 17 17 17 17 16 16 15 15 15 14 14 14 13 13 13 13 13
15 15 16 17 17 18 18 18 18 18 18 18 18 18 18 19 19 19 19 19 19 19 18 18 17 17 17 16 16 16 16 15 15 15 15 14 14 14 14 13 13 13 12 12
15 16 15 16 17 17 17 17 17 18 17 17 17 17 17 17 17 17 17 17 17 17 17 17 16 16 16 16 15 15 15 15 14 14 14 14 13 13 13 13 12 12 12 12
16 17 16 16 17 17 17 17 17 17 17 17 17 17 17 17 17 16 16 16 16 16 16 16 16 15 15 15 15 14 14 14 14 13 13 13 13 12 12 12 12 12 12 11
16 16 15 15 15 16 16 16 16 16 16 16 16 16 16 16 15 15 15 15 15 15 15 14 14 14 14 14 14 14 13 13 13 12 12 12 12 12 11 11 11 12 11 11
16 16 15 15 15 15 15 16 15 15 15 15 15 15 15 15 15 14 14 14 14 14 14 13 13 13 13 13 13 13 12 12 12 12 11 11 11 11 11 11 11 11 11 11
15 15 15 15 15 15 15 15 15 14 14 14 14 14 14 14 14 14 14 13 13 13 13 13 13 12 12 12 12 12 12 11 11 11 11 11 11 10 10 10 10 10 10 10
14 14 14 14 14 14 14 14 14 14 14 14 14 14 13 13 13 13 13 13 13 12 12 12 12 12 12 12 11 11 11 11 10 10 10 10 10 10 10 10 10 10 10 10
14 14 14 14 14 14 14 13 13 13 13 13 13 13 13 13 13 12 12 12 12 12 12 11 11 11 11 11 11 11 11 10 10 10 10 10 9 9 9 9 9 9 9 9
14 13 13 13 13 13 13 13 13 13 13 13 13 12 12 12 12 12 12 12 11 11 11 11 11 11 11 11 10 10 10 10 10 9 9 9 9 9 9 9 8 8 9 9
13 13 13 12 12 12 12 12 12 12 12 12 12 12 12 12 12 11 11 11 11 11 11 11 11 10 10 10 10 10 9 9 9 9 9 8 8 8 8 8 8 8 8 8
12 12 12 12 12 12 12 12 12 12 12 12 11 11 11 11 11 11 11 11 11 11 10 10 10 10 10 10 9 9 9 9 8 8 8 8 8 7 7 7 7 7 7 7
12 12 12 12 12 11 11 11 11 11 11 11 11 11 11 11 11 11 11 10 10 10 10 10 10 10 9 9 9 9 8 8 8 8 7 7 7 7 7 7 7 7 7 7
11 11 11 11 11 11 11 11 11 11 11 11 11 11 10 10 10 10 10 10 10 10 10 10 9 9 9 9 8 8 8 8 7 7 7 7 7 6 6 6 6 6 6 6
11 11 11 11 11 11 11 11 11 11 11 10 10 10 10 10 10 10 9 9 9 9 9 9 9 9 8 8 8 8 7 7 7 7 6 6 6 6 6 6 5 5 5 6
10 10 10 10 10 10 10 10 10 10 10 10 10 10 9 9 9 9 9 9 9 9 8 8 8 8 8 7 7 7 7 6 6 6 6 6 5 5 5 5 5 5 5 5
10 10 10 10 10 10 10 10 9 9 9 9 9 9 9 9 8 8 8 8 8 8 8 8 7 7 7 7 6 6 6 6 5 5 5 5 5 5 4 4 4 4 4 4
9 9 9 9 9 9 9 9 9 8 8 8 8 8 8 8 8 8 8 7 7 7 7 7 7 6 6 6 6 5 5 5 5 4 4 4 4 4 4 4 4 4 4 4
Wind_Speed
6 4 4 5 6 8 8 8 9 9 9 11 8 9 10 10 9 9 9 10 12 13 12 11 11 11 11 11 10 10 10 10 10 9 8 7 7 7 6 6 6 6 5 5
2 2 4 4 6 8 9 6 7 6 9 9 6 5 6 8 10 11 11 12 13 12 12 13 14 13 12 11 11 10 11 11 10 8 8 8 8 7 6 6 6 5 6 6
3 2 1 6 7 7 5 6 8 9 10 4 3 6 9 10 11 13 13 12 13 14 14 15 15 14 14 13 10 11 11 10 9 9 9 9 8 7 7 7 6 6 6 6
2 2 6 8 3 4 5 5 6 7 7 6 7 5 4 6 10 11 10 10 11 11 12 11 11 11 10 9 10 11 10 10 9 9 9 8 7 8 7 6 6 6 7 7
4 4 7 6 2 4 4 5 6 6 6 4 2 1 2 2 5 8 9 9 10 10 9 8 9 10 10 9 10 10 11 11 10 10 10 9 9 9 7 6 6 7 6 7
4 4 6 7 2 2 4 5 5 5 5 2 3 2 4 3 3 3 3 4 5 6 6 8 8 10 11 10 10 12 13 11 9 9 10 10 10 8 6 6 7 7 7 8
4 5 7 5 1 4 4 6 2 3 3 3 3 4 3 2 1 1 1 3 5 7 7 8 9 11 11 10 12 13 9 7 7 8 9 8 7 6 5 6 6 7 8 8
5 4 7 3 1 5 6 2 0 0 1 1 1 1 2 3 3 3 3 3 4 5 4 4 8 10 10 11 10 6 6 6 6 7 7 6 6 6 5 6 6 7 7 8
7 7 4 2 4 3 2 1 1 1 0 2 2 3 4 5 5 4 4 4 3 4 5 4 6 9 9 7 5 6 6 5 5 5 5 5 6 6 5 5 6 7 7 8
4 6 5 4 3 2 1 1 1 2 2 4 4 4 5 6 6 5 4 4 4 6 6 4 4 5 4 4 6 6 5 4 3 4 4 4 4 5 6 6 7 7 8 8
4 5 4 3 2 1 3 4 6 6 6 6 7 7 6 6 6 5 5 5 5 6 5 4 3 3 3 4 6 5 4 3 3 3 4 4 5 6 7 8 8 9 8 8
6 6 4 3 0 3 6 6 6 8 8 7 7 7 7 7 6 5 5 5 6 6 5 4 4 3 2 3 4 4 3 2 2 3 3 3 4 5 9 11 13 15 15 13
4 0 2 1 4 6 7 7 8 9 8 8 8 7 8 7 6 6 6 5 5 4 3 3 3 2 1 2 4 4 3 2 2 2 3 3 4 5 7 7 10 13 16 16
1 4 4 4 5 7 9 9 9 9 9 8 7 7 7 7 6 7 5 3 4 4 4 3 3 2 1 1 2 2 2 2 2 2 3 4 5 6 6 7 8 7 9 12
4 5 7 7 9 9 9 10 11 10 9 8 7 7 7 7 6 5 4 4 5 6 5 4 3 2 2 1 2 1 1 1 2 3 4 4 5 6 6 7 8 8 8 8
8 10 11 11 11 10 10 10 9 7 6 6 6 5 5 5 4 4 4 5 5 4 3 3 3 3 2 1 0 0 1 4 3 3 4 4 5 5 6 7 7 8 8 8
8 7 8 9 9 8 8 8 7 6 5 5 4 3 4 5 5 5 5 4 3 2 2 2 2 3 2 1 1 1 2 3 5 4 4 5 5 6 6 7 7 8 8 9
8 7 7 8 8 8 7 7 6 5 3 2 3 4 4 4 3 2 2 3 3 4 3 3 2 2 2 2 1 2 2 2 3 4 4 5 5 6 6 7 8 9 9 9
11 11 10 10 8 7 6 5 4 3 2 2 3 2 1 1 1 1 1 3 3 4 5 4 4 3 3 3 2 1 2 3 4 4 4 6 6 6 6 7 8 8 9 8
11 10 10 8 7 5 4 3 2 3 2 2 2 2 2 2 2 1 1 2 3 4 5 5 3 3 4 4 4 2 3 4 5 5 5 5 6 7 7 8 8 9 8 8
8 8 7 6 5 4 3 2 2 3 3 2 1 1 2 3 2 1 1 3 5 5 5 5 3 4 4 4 4 3 4 4 5 5 6 6 7 7 8 8 8 8 8 8
3 3 3 3 2 2 3 3 2 2 3 3 2 1 2 3 3 3 4 5 6 7 5 4 4 6 6 5 3 4 5 5 6 6 6 6 7 8 8 8 8 8 7 7
1 1 1 1 1 2 3 3 3 2 2 3 3 3 3 4 3 3 5 5 5 7 5 5 7 8 7 4 4 5 6 6 6 6 7 7 7 8 8 8 7 7 8 8
1 1 1 2 1 2 3 4 4 3 3 3 3 4 3 3 4 4 5 7 8 8 5 6 7 7 6 3 4 4 5 6 6 7 7 7 7 7 7 7 7 7 8 8
2 2 2 2 2 2 3 4 4 4 4 3 5 5 3 3 4 5 5 6 7 7 5 6 6 6 4 3 4 4 5 5 6 6 7 7 7 7 7 7 7 7 7 7
2 2 2 2 3 3 3 2 2 3 3 4 5 5 5 4 5 5 5 6 7 6 4 3 3 4 3 3 4 5 5 6 7 7 7 7 7 6 6 6 8 7 6 6
3 2 2 3 3 2 2 2 2 3 3 4 5 5 6 5 5 5 5 5 5 4 3 3 3 3 3 4 4 4 5 5 5 6 6 6 6 6 7 8 7 6 7 7
Wind_Direction
223 222 189 212 203 178 187 191 191 225 229 251 241 224 220 211 201 193 193 193 194 197 196 190 187 187 189 189 183 178 178 190 202 202 199 200 207 213 214 217 226 227 232 244
267 243 209 246 241 208 212 208 219 239 255 250 252 221 211 202 192 197 203 203 200 197 193 191 192 192 190 190 185 178 186 199 201 195 197 204 211 211 212 221 225 223 231 240
251 314 15 265 237 205 202 205 193 216 237 258 239 220 212 202 195 203 207 204 199 197 197 197 196 190 191 192 179 179 191 197 196 196 201 208 209 206 215 220 221 228 235 238
171 108 229 244 253 184 191 226 218 237 260 251 243 238 221 199 194 203 203 202 203 201 200 198 190 183 179 168 172 183 192 198 197 197 205 206 203 211 217 214 220 229 237 240
143 196 268 286 230 161 177 250 227 231 258 272 266 80 337 238 208 208 203 199 200 198 194 181 177 171 161 167 175 186 199 204 200 197 203 202 208 216 213 210 222 227 235 237
140 175 236 250 205 158 127 273 239 215 234 230 133 141 272 278 228 223 208 188 181 167 157 164 169 157 161 174 181 198 206 206 199 195 199 204 212 213 207 210 224 230 240 241
167 212 259 259 244 128 171 245 259 205 223 195 182 200 267 313 185 168 142 144 149 154 167 178 161 156 172 182 200 208 199 189 188 194 200 206 207 206 206 214 226 235 246 252
158 193 252 280 145 183 219 270 330 216 209 179 210 3 20 41 52 58 70 86 125 146 163 151 152 166 181 199 207 181 167 180 193 198 202 205 202 209 207 212 229 242 250 263
191 215 249 257 231 256 200 207 235 120 75 122 79 32 36 50 53 51 66 79 101 130 132 134 160 172 190 202 161 152 165 187 198 201 205 199 201 212 213 215 230 244 247 257
245 263 264 263 239 241 182 157 85 91 82 83 81 54 44 45 49 48 55 78 91 104 113 121 144 163 172 145 144 150 169 190 194 199 210 212 213 217 220 225 233 243 249 255
251 271 298 308 256 170 112 95 91 86 83 83 85 68 62 56 48 45 54 67 85 98 101 101 107 110 109 125 138 149 165 181 194 204 212 224 229 230 231 233 229 234 245 247
232 230 202 247 210 118 110 96 93 90 73 64 76 78 74 66 57 60 64 69 77 80 83 88 99 97 103 127 137 147 158 181 205 218 226 237 253 269 250 247 253 245 245 247
240 204 147 117 66 80 95 91 86 85 86 77 65 73 78 72 60 63 63 63 72 79 84 87 89 82 54 121 139 149 169 195 213 231 241 253 260 268 284 284 265 258 255 253
183 120 88 69 78 81 91 93 89 79 75 77 73 70 72 71 62 59 53 54 74 78 72 74 76 43 351 114 129 144 169 196 220 250 257 258 259 263 265 275 288 287 272 261
55 100 116 105 90 84 86 89 83 73 69 65 66 69 71 71 62 46 34 50 68 65 56 58 55 4 336 104 138 169 216 263 267 266 263 262 265 267 268 269 272 278 288 287
80 84 94 95 91 87 85 84 84 75 69 68 65 61 63 74 68 52 39 46 62 53 31 36 18 332 339 17 85 306 283 288 286 275 277 278 276 275 275 275 277 279 278 279
92 91 94 95 91 87 83 87 90 85 75 73 71 71 69 64 52 40 27 26 45 35 12 13 336 328 341 344 271 271 284 297 301 296 285 283 282 279 279 280 280 280 278 277
83 92 101 105 100 86 73 71 77 78 77 77 73 67 65 67 59 26 358 13 28 13 343 313 307 325 327 312 285 275 280 288 291 289 291 293 292 288 288 287 286 285 286 287
80 81 78 80 85 86 77 66 61 57 51 75 78 66 43 25 352 323 4 25 10 338 312 308 319 327 318 314 319 293 294 297 298 296 295 295 298 296 292 290 288 287 286 287
76 78 78 73 68 73 72 55 42 32 18 41 54 36 359 329 323 333 4 318 271 259 277 296 307 308 300 301 313 294 289 290 293 295 295 297 298 298 297 296 294 291 290 289
75 76 76 71 58 45 40 29 25 4 350 8 20 315 293 297 300 295 294 295 288 283 285 287 286 285 289 295 301 291 287 286 288 288 291 294 297 298 298 297 296 293 293 292
59 66 67 63 49 357 338 349 357 351 351 353 345 320 305 300 300 294 261 251 272 294 297 288 284 282 290 295 290 288 288 287 287 287 288 290 293 295 296 296 295 296 296 295
18 23 24 8 338 313 337 354 356 350 330 316 306 290 277 272 268 265 285 281 284 294 294 284 285 290 299 298 289 289 292 293 292 291 289 289 289 289 290 293 294 297 300 302
340 342 336 336 359 9 345 327 327 322 310 300 291 281 273 284 289 265 259 286 298 300 295 293 300 307 310 301 296 298 299 300 299 297 296 295 295 294 293 296 299 300 303 306
325 333 349 354 339 301 288 303 320 326 328 319 313 308 293 260 261 285 294 299 306 309 308 311 317 322 325 317 312 311 309 306 305 304 303 303 302 301 300 302 304 306 308 308
327 313 297 277 268 270 278 285 290 294 301 309 311 309 308 304 296 297 301 307 309 310 309 314 323 327 328 322 319 317 315 315 313 310 308 308 308 310 311 312 313 314 312 312
348 345 337 331 322 306 295 287 284 289 289 287 293 301 307 312 314 315 316 318 319 320 321 324 330 332 331 330 326 324 326 327 326 322 322 322 321 320 320 318 317 317 316 316
Height
1480 1477 1478 1479 1480 1485 1489 1491 1497 1490 1487 1476 1470 1469 1469 1471 1474 1478 1481 1484 1488 1491 1495 1500 1504 1508 1512 1516 1519 1522 1525 1527 1529 1531 1532 1533 1534 1534 1535 1535 1535 1535 1534 1534
1478 1474 1475 1478 1475 1477 1480 1481 1483 1481 1478 1465 1464 1464 1465 1467 1470 1473 1476 1479 1482 1486 1490 1494 1499 1503 1507 1511 1515 1518 1520 1523 1525 1527 1528 1530 1531 1531 1531 1531 1531 1531 1531 1530
1487 1479 1477 1483 1472 1471 1473 1471 1474 1476 1468 1461 1462 1460 1460 1462 1465 1468 1471 1474 1477 1481 1484 1489 1493 1498 1503 1507 1511 1513 1516 1519 1521 1523 1524 1526 1527 1527 1528 1528 1528 1527 1527 1526
1489 1485 1493 1476 1463 1463 1467 1466 1466 1464 1461 1459 1458 1457 1458 1459 1461 1463 1467 1470 1473 1477 1481 1485 1490 1494 1499 1503 1506 1509 1512 1514 1517 1518 1520 1522 1523 1523 1524 1524 1524 1523 1523 1522
1493 1492 1484 1470 1462 1463 1467 1467 1461 1461 1459 1458 1457 1458 1458 1458 1460 1461 1464 1467 1470 1474 1478 1481 1486 1491 1495 1499 1502 1505 1507 1510 1512 1514 1516 1517 1518 1519 1519 1519 1519 1519 1518 1518
1490 1490 1490 1470 1460 1459 1464 1468 1457 1457 1457 1457 1457 1463 1460 1458 1458 1460 1462 1465 1468 1472 1475 1479 1483 1487 1491 1495 1498 1500 1502 1505 1507 1509 1511 1512 1513 1514 1515 1515 1515 1514 1514 1513
1487 1487 1477 1462 1459 1460 1473 1467 1456 1455 1455 1456 1457 1458 1458 1457 1457 1459 1461 1464 1467 1470 1473 1476 1480 1484 1487 1491 1493 1495 1498 1501 1503 1505 1507 1508 1509 1509 1510 1510 1510 1509 1508 1508
1485 1486 1479 1459 1458 1462 1461 1455 1455 1455 1455 1456 1456 1456 1456 1456 1457 1458 1461 1463 1465 1467 1470 1474 1477 1481 1484 1486 1489 1492 1495 1497 1499 1501 1502 1503 1504 1504 1505 1505 1504 1504 1503 1502
1473 1471 1460 1457 1457 1456 1456 1455 1455 1455 1456 1456 1456 1456 1456 1456 1457 1459 1460 1462 1464 1466 1469 1472 1475 1478 1480 1483 1486 1489 1491 1493 1495 1497 1498 1498 1499 1499 1499 1499 1498 1498 1497 1496
1466 1459 1456 1455 1455 1454 1454 1455 1455 1456 1456 1456 1457 1457 1457 1457 1458 1460 1461 1462 1464 1466 1468 1470 1472 1474 1477 1480 1483 1485 1487 1489 1491 1492 1493 1493 1494 1494 1493 1493 1492 1491 1490 1489
1463 1457 1455 1453 1453 1454 1454 1455 1456 1457 1458 1458 1458 1458 1459 1459 1460 1462 1462 1463 1464 1466 1467 1469 1471 1473 1475 1478 1480 1482 1483 1485 1486 1487 1488 1488 1488 1488 1487 1487 1486 1485 1483 1482
1459 1453 1454 1453 1453 1453 1455 1456 1457 1457 1458 1460 1460 1460 1461 1461 1462 1463 1464 1464 1465 1466 1468 1469 1471 1473 1475 1476 1478 1479 1480 1481 1482 1483 1483 1483 1483 1482 1481 1481 1480 1478 1477 1476
1452 1452 1452 1453 1453 1454 1456 1458 1459 1460 1461 1461 1462 1463 1463 1464 1465 1465 1465 1466 1466 1467 1469 1470 1471 1472 1474 1475 1475 1476 1477 1478 1478 1478 1478 1477 1477 1476 1475 1474 1473 1472 1470 1468
1451 1451 1453 1453 1455 1457 1458 1460 1461 1462 1463 1464 1465 1466 1466 1467 1467 1467 1467 1467 1468 1468 1469 1470 1470 1471 1473 1473 1473 1474 1474 1474 1474 1474 1473 1472 1471 1470 1469 1467 1465 1464 1463 1461
1451 1451 1453 1455 1458 1460 1461 1463 1464 1465 1466 1467 1468 1469 1469 1469 1469 1469 1469 1469 1469 1469 1469 1470 1470 1471 1471 1471 1471 1471 1471 1470 1470 1469 1468 1467 1466 1465 1463 1461 1459 1457 1455 1454
1453 1454 1456 1458 1460 1463 1465 1466 1467 1469 1470 1470 1471 1472 1472 1472 1471 1471 1471 1471 1471 1470 1470 1470 1470 1470 1470 1470 1469 1468 1468 1467 1466 1465 1464 1462 1461 1459 1457 1455 1452 1450 1448 1447
1457 1459 1461 1462 1465 1467 1468 1469 1471 1472 1473 1473 1474 1474 1474 1474 1473 1472 1472 1472 1472 1471 1471 1470 1470 1469 1469 1468 1467 1466 1465 1463 1462 1461 1459 1458 1456 1453 1451 1449 1446 1443 1442 1440
1462 1463 1466 1467 1469 1471 1472 1473 1474 1475 1475 1476 1476 1475 1475 1474 1473 1473 1473 1473 1472 1472 1471 1470 1469 1468 1467 1466 1465 1463 1462 1460 1458 1456 1454 1452 1450 1448 1445 1443 1440 1437 1435 1433
1466 1469 1471 1472 1473 1474 1475 1476 1476 1477 1477 1476 1476 1476 1475 1475 1474 1474 1473 1472 1471 1471 1470 1469 1468 1467 1465 1464 1462 1460 1458 1456 1454 1452 1450 1447 1445 1442 1439 1437 1434 1432 1429 1427
1471 1473 1474 1476 1477 1477 1478 1478 1478 1478 1478 1477 1476 1476 1475 1475 1474 1473 1472 1471 1471 1469 1468 1467 1465 1464 1462 1460 1458 1456 1454 1452 1450 1447 1445 1442 1439 1436 1434 1431 1428 1426 1423 1421
1475 1477 1478 1479 1479 1480 1479 1479 1479 1478 1478 1477 1476 1475 1474 1474 1473 1472 1471 1470 1469 1467 1466 1464 1462 1460 1458 1456 1454 1452 1450 1447 1445 1442 1439 1436 1434 1431 1428 1425 1423 1420 1417 1415
1479 1479 1480 1480 1480 1480 1480 1479 1478 1478 1477 1476 1475 1474 1473 1472 1471 1470 1469 1468 1466 1464 1462 1460 1458 1456 1454 1452 1450 1447 1445 1442 1440 1437 1434 1431 1428 1425 1422 1419 1417 1414 1411 1409
1481 1481 1481 1481 1480 1480 1479 1479 1478 1477 1476 1474 1473 1472 1471 1470 1469 1467 1466 1464 1462 1460 1458 1456 1454 1452 1449 1447 1445 1442 1440 1437 1434 1431 1428 1425 1422 1419 1416 1413 1411 1408 1405 1402
1481 1481 1481 1480 1480 1479 1478 1477 1476 1475 1474 1472 1471 1470 1468 1467 1466 1464 1462 1460 1458 1456 1454 1452 1449 1447 1444 1442 1440 1437 1434 1431 1428 1426 1423 1420 1417 1414 1411 1408 1405 1402 1399 1396
1480 1480 1479 1479 1478 1477 1476 1475 1474 1473 1471 1470 1469 1467 1466 1464 1462 1460 1458 1456 1454 1451 1449 1447 1444 1442 1440 1437 1435 1432 1429 1426 1423 1420 1417 1414 1411 1408 1405 1402 1399 1396 1393 1391
1479 1478 1478 1477 1476 1475 1474 1472 1471 1470 1468 1467 1465 1464 1462 1460 1458 1456 1454 1451 1449 1447 1444 1442 1440 1437 1435 1432 1430 1427 1424 1421 1418 1415 1412 1408 1405 1402 1399 1396 1394 1392 1389 1386
1478 1477 1476 1475 1474 1472 1471 1470 1468 1467 1465 1463 1462 1460 1458 1456 1453 1451 1449 1447 1444 1442 1440 1437 1435 1432 1430 1427 1425 1422 1419 1416 1413 1410 1407 1404 1401 1398 1395 1393 1390 1387 1385 1382